Regional Weather Roundup
Issued by NWS Cleveland, OH

Home | Current Version | Previous Version | Text Only | Print | Product List | Glossary Off
Versions: 1 2 3 4 5 6 7 8 9 10 11 12 13 14 15 16 17 18 19 20 21 22 23 24 25 26 27 28 29 30 31 32 33 34 35 36 37 38 39 40 41 42 43 44 45 46 47 48 49 50

000
ASUS41 KCLE 260212
RWRCLE
OHIO REGIONAL WEATHER ROUNDUP
NATIONAL WEATHER SERVICE WILMINGTON, OH
1000 PM EDT WED MAY 25 2016

NOTE: "FAIR" INDICATES FEW OR NO CLOUDS BELOW 12,000 FEET WITH NO
SIGNIFICANT WEATHER AND/OR OBSTRUCTIONS TO VISIBILITY.

OHZ001>008-015>018-024>027-034-035-043-044-260300-
   NORTHWEST OHIO

CITY           SKY/WX    TMP DP  RH WIND       PRES   REMARKS
DEFIANCE       FAIR      80  58  46 S10       29.99R
FINDLAY        FAIR      76  57  51 S17       30.02R
TOLEDO EXPRESS MOCLDY    76  59  55 S6        29.99R
TOLEDO EXEC    MOCLDY    77  58  51 SE13      30.01R
LIMA           FAIR      74  60  61 S8        30.03R
$$

OHZ009>014-019>023-028>033-038-089-260300-
   NORTHEAST OHIO

CITY           SKY/WX    TMP DP  RH WIND       PRES   REMARKS
CLE-HOPKINS    MOCLDY    76  55  48 S9        30.08R
CLE-LAKEFRONT  FAIR      77  55  46 S10       30.05R
CUY CO. ARPT   MOCLDY    77  57  50 S10       30.08R
LORAIN-ELYRIA  MOCLDY    72  56  57 S8        30.07R
ASHTABULA      FAIR      67  57  70 S5        30.09R
AKRON-CANTON   MOCLDY    71  55  56 S7        30.10R
WOOSTER        FAIR      67  57  70 S6        30.10R
MANSFIELD      FAIR      71  58  63 S9        30.09R
YOUNGSTOWN     MOCLDY    73  54  51 S3        30.10R
$$

OHZ042-051>053-060>062-070>072-077>081-260300-
  SOUTHWEST OHIO

CITY           SKY/WX    TMP DP  RH WIND       PRES   REMARKS
CINC-COVINGTON MOCLDY    73  64  73 S7        30.06R
CINC-LUNKEN    FAIR      72  65  78 S6        30.06R
HAMILTON       FAIR      77  64  64 SW8       30.06R
DAYTON         MOCLDY    75  61  61 S8        30.06R
WRIGHT-PAT AFB FAIR      75  63  64 S9        30.05R
DAYTON GENERAL FAIR      73  61  65 S6        30.05R
WILMINGTON     FAIR      72  62  71 S12       30.07R
$$

OHZ036-037-039>041-045>050-054>059-063>069-073>076-082>088-260300-
  CENTRAL AND SOUTHEAST OHIO

CITY           SKY/WX    TMP DP  RH WIND       PRES   REMARKS
COLUMBUS       MOCLDY    73  59  61 SE6       30.07R
OSU AIRPORT    FAIR      74  60  61 S7        30.07R
BOLTON FIELD   FAIR      70  62  75 S7        30.08R
RICKENBACK AFB MOCLDY    71  61  70 S9        30.07R
NEWARK         FAIR      72  59  63 S3        30.08R
MARION         FAIR      70  58  65 SE7       30.07R
LANCASTER      CLOUDY    73  61  65 S7        30.09R
ZANESVILLE     FAIR      71  59  65 SE6       30.09S
NEW PHILLY     CLOUDY    72  58  61 SE5       30.10R
$$




USA.gov is the U.S. government's official web portal to all federal, state and local government web resources and services.